Tracking 31030 objects as of 15-Jul-2025
HD Live streaming from Space Station
objects crossing your sky now

SL-6 R/B(2)

Track SL-6 R/B(2) now!


NORAD ID: 14796
Int'l Code: 1984-024D
Perigee: 6,545.7 km
Apogee: 33,427.4 km
Inclination: 71.4 °
Period: 709.8 minutes
Semi major axis: 26357 km
RCS: 6.8684 m2 (large)
Launch date: March 6, 1984
Source: Commonwealth of Independent States (former USSR) (CIS)
Launch site: PLESETSK MISSILE AND SPACE COMPLEX (PKMTR)

Note: This is a ROCKET BODY
Your satellite tracking list
Your tracking list is empty




NASA's NSSDC Master Catalog

Two Line Element Set (TLE):
1 14796U 84024D   25195.65290853  .00000180  00000-0  00000-0 0  9994
2 14796  71.3663  98.5823 5099430 341.8069 228.9371  2.02883083306253
Source of the keplerian elements: AFSPC